QPF
0.00 0.00 0.00 0.00 0.00 0.00 0.00 0.00 0.00 0.00 0.00 0.00 0.00 0.00 0.00 0.00 0.00 0.00 0.00 0.00 0.00 0.00 0.00 0.00 0.00 0.00 0.00 0.00 0.00 0.00 0.00 0.00 0.00 0.00 0.00 0.00 0.00 0.00 0.00 0.00 0.00 0.00 0.00 0.00 0.00
0.00 0.00 0.00 0.00 0.00 0.00 0.00 0.00 0.00 0.00 0.00 0.00 0.00 0.00 0.00 0.00 0.00 0.00 0.00 0.00 0.00 0.00 0.00 0.00 0.00 0.00 0.00 0.00 0.00 0.00 0.00 0.00 0.00 0.00 0.00 0.00 0.00 0.00 0.00 0.00 0.00 0.00 0.00 0.00 0.00
0.00 0.00 0.00 0.00 0.00 0.00 0.00 0.00 0.00 0.00 0.00 0.00 0.00 0.00 0.00 0.00 0.00 0.00 0.00 0.00 0.00 0.00 0.00 0.00 0.00 0.00 0.00 0.00 0.00 0.00 0.00 0.00 0.00 0.00 0.00 0.00 0.00 0.00 0.00 0.00 0.00 0.00 0.00 0.00 0.00
0.00 0.00 0.00 0.00 0.00 0.00 0.00 0.00 0.00 0.00 0.00 0.00 0.00 0.00 0.00 0.00 0.00 0.00 0.00 0.00 0.00 0.00 0.00 0.00 0.00 0.00 0.00 0.00 0.00 0.00 0.00 0.00 0.00 0.00 0.00 0.00 0.00 0.00 0.00 0.00 0.00 0.00 0.00 0.00 0.00
0.00 0.00 0.00 0.00 0.00 0.00 0.00 0.00 0.00 0.00 0.00 0.00 0.00 0.00 0.00 0.00 0.00 0.00 0.00 0.00 0.00 0.00 0.00 0.00 0.00 0.00 0.00 0.00 0.00 0.00 0.00 0.00 0.00 0.00 0.00 0.00 0.00 0.00 0.00 0.00 0.00 0.00 0.00 0.00 0.00
0.00 0.00 0.00 0.00 0.00 0.00 0.00 0.00 0.00 0.00 0.00 0.00 0.00 0.00 0.00 0.00 0.00 0.00 0.00 0.00 0.00 0.00 0.00 0.00 0.00 0.00 0.00 0.00 0.00 0.00 0.00 0.00 0.00 0.00 0.00 0.00 0.00 0.00 0.00 0.00 0.00 0.00 0.00 0.00 0.00
0.00 0.00 0.00 0.00 0.00 0.00 0.00 0.00 0.00 0.00 0.00 0.00 0.00 0.00 0.00 0.00 0.00 0.00 0.00 0.00 0.00 0.00 0.00 0.00 0.00 0.00 0.00 0.00 0.00 0.00 0.00 0.00 0.00 0.00 0.00 0.00 0.00 0.00 0.00 0.00 0.00 0.00 0.00 0.00 0.00
0.00 0.00 0.00 0.00 0.00 0.00 0.00 0.00 0.00 0.00 0.00 0.00 0.00 0.00 0.00 0.00 0.00 0.00 0.00 0.00 0.00 0.00 0.00 0.00 0.00 0.00 0.00 0.00 0.00 0.00 0.00 0.00 0.00 0.00 0.00 0.00 0.00 0.00 0.00 0.00 0.00 0.00 0.00 0.00 0.00
0.00 0.00 0.00 0.00 0.00 0.00 0.00 0.00 0.00 0.00 0.00 0.00 0.00 0.00 0.00 0.00 0.00 0.00 0.00 0.00 0.00 0.00 0.00 0.00 0.00 0.00 0.00 0.00 0.00 0.00 0.00 0.00 0.00 0.00 0.00 0.00 0.00 0.00 0.00 0.00 0.00 0.00 0.00 0.00 0.00
0.00 0.00 0.00 0.00 0.00 0.00 0.00 0.00 0.00 0.00 0.00 0.00 0.00 0.00 0.00 0.00 0.00 0.00 0.00 0.00 0.00 0.00 0.00 0.00 0.00 0.00 0.00 0.00 0.00 0.00 0.00 0.00 0.00 0.00 0.00 0.00 0.00 0.00 0.00 0.00 0.00 0.00 0.00 0.00 0.00
0.00 0.00 0.00 0.00 0.00 0.00 0.00 0.00 0.00 0.00 0.00 0.00 0.00 0.00 0.00 0.00 0.00 0.00 0.00 0.00 0.00 0.00 0.00 0.00 0.00 0.00 0.00 0.00 0.00 0.00 0.00 0.00 0.00 0.00 0.00 0.00 0.00 0.00 0.00 0.00 0.00 0.00 0.00 0.00 0.00
0.00 0.00 0.00 0.00 0.00 0.00 0.00 0.00 0.00 0.00 0.00 0.00 0.00 0.00 0.00 0.00 0.00 0.00 0.00 0.00 0.00 0.00 0.00 0.00 0.00 0.00 0.00 0.00 0.00 0.00 0.00 0.00 0.00 0.00 0.00 0.00 0.00 0.00 0.00 0.00 0.00 0.00 0.00 0.00 0.00
0.00 0.00 0.00 0.00 0.00 0.00 0.00 0.00 0.00 0.00 0.00 0.00 0.00 0.00 0.00 0.00 0.00 0.00 0.00 0.00 0.00 0.00 0.00 0.00 0.00 0.00 0.00 0.00 0.00 0.00 0.00 0.00 0.00 0.00 0.00 0.00 0.00 0.00 0.00 0.00 0.00 0.00 0.00 0.00 0.00
0.00 0.00 0.00 0.00 0.00 0.00 0.00 0.00 0.00 0.00 0.00 0.00 0.00 0.00 0.00 0.00 0.00 0.00 0.00 0.00 0.00 0.00 0.00 0.00 0.00 0.00 0.00 0.00 0.00 0.00 0.00 0.00 0.00 0.00 0.00 0.00 0.00 0.00 0.00 0.00 0.00 0.00 0.00 0.00 0.00
0.00 0.00 0.00 0.00 0.00 0.00 0.00 0.00 0.00 0.00 0.00 0.00 0.00 0.00 0.00 0.00 0.00 0.00 0.00 0.00 0.00 0.00 0.00 0.00 0.00 0.00 0.00 0.00 0.00 0.00 0.00 0.00 0.00 0.00 0.00 0.00 0.00 0.00 0.00 0.00 0.00 0.00 0.00 0.00 0.00
0.00 0.00 0.00 0.00 0.00 0.00 0.00 0.00 0.00 0.00 0.00 0.00 0.00 0.00 0.00 0.00 0.00 0.00 0.00 0.00 0.00 0.00 0.00 0.00 0.00 0.00 0.00 0.00 0.00 0.00 0.00 0.00 0.00 0.00 0.00 0.00 0.00 0.00 0.00 0.00 0.00 0.00 0.00 0.00 0.00
0.00 0.00 0.00 0.00 0.00 0.00 0.00 0.00 0.00 0.00 0.00 0.00 0.00 0.00 0.00 0.00 0.00 0.00 0.00 0.00 0.00 0.00 0.00 0.00 0.00 0.00 0.00 0.00 0.00 0.00 0.00 0.00 0.00 0.00 0.00 0.00 0.00 0.00 0.00 0.00 0.00 0.00 0.00 0.00 0.00
0.00 0.00 0.00 0.00 0.00 0.00 0.00 0.00 0.00 0.00 0.00 0.00 0.00 0.00 0.00 0.00 0.00 0.00 0.00 0.00 0.00 0.00 0.00 0.00 0.00 0.00 0.00 0.00 0.00 0.00 0.00 0.00 0.00 0.00 0.00 0.00 0.00 0.00 0.00 0.00 0.00 0.00 0.00 0.00 0.00
0.00 0.00 0.00 0.00 0.00 0.00 0.00 0.00 0.00 0.00 0.00 0.00 0.00 0.00 0.00 0.00 0.00 0.00 0.00 0.00 0.00 0.00 0.00 0.00 0.00 0.00 0.00 0.00 0.00 0.00 0.00 0.00 0.00 0.00 0.00 0.00 0.00 0.00 0.00 0.00 0.00 0.00 0.00 0.00 0.00
0.00 0.00 0.00 0.00 0.00 0.00 0.00 0.00 0.00 0.00 0.00 0.00 0.00 0.00 0.00 0.00 0.00 0.00 0.00 0.00 0.00 0.00 0.00 0.00 0.00 0.00 0.00 0.00 0.00 0.00 0.00 0.00 0.00 0.00 0.00 0.00 0.00 0.00 0.00 0.00 0.00 0.00 0.00 0.00 0.00
0.00 0.00 0.00 0.00 0.00 0.00 0.00 0.00 0.00 0.00 0.00 0.00 0.00 0.00 0.00 0.00 0.00 0.00 0.00 0.00 0.00 0.00 0.00 0.00 0.00 0.00 0.00 0.00 0.00 0.00 0.00 0.00 0.00 0.00 0.00 0.00 0.00 0.00 0.00 0.00 0.00 0.00 0.00 0.00 0.00
0.00 0.00 0.00 0.00 0.00 0.00 0.00 0.00 0.00 0.00 0.00 0.00 0.00 0.00 0.00 0.00 0.00 0.00 0.00 0.00 0.00 0.00 0.00 0.00 0.00 0.00 0.00 0.00 0.00 0.00 0.00 0.00 0.00 0.00 0.00 0.00 0.00 0.00 0.00 0.00 0.00 0.00 0.00 0.00 0.00
0.00 0.00 0.00 0.00 0.00 0.00 0.00 0.00 0.00 0.00 0.00 0.00 0.00 0.00 0.00 0.00 0.00 0.00 0.00 0.00 0.00 0.00 0.00 0.00 0.00 0.00 0.00 0.00 0.00 0.00 0.00 0.00 0.00 0.00 0.00 0.00 0.00 0.00 0.00 0.00 0.00 0.00 0.00 0.00 0.00
0.00 0.00 0.00 0.00 0.00 0.00 0.00 0.00 0.00 0.00 0.00 0.00 0.00 0.00 0.00 0.00 0.00 0.00 0.00 0.00 0.00 0.00 0.00 0.00 0.00 0.00 0.00 0.00 0.00 0.00 0.00 0.00 0.00 0.00 0.00 0.00 0.00 0.00 0.00 0.00 0.00 0.00 0.00 0.00 0.00
0.00 0.00 0.00 0.00 0.00 0.00 0.00 0.00 0.00 0.00 0.00 0.00 0.00 0.00 0.00 0.00 0.00 0.00 0.00 0.00 0.00 0.00 0.00 0.00 0.00 0.00 0.00 0.00 0.00 0.00 0.00 0.00 0.00 0.00 0.00 0.00 0.00 0.00 0.00 0.00 0.00 0.00 0.00 0.00 0.00
0.00 0.00 0.00 0.00 0.00 0.00 0.00 0.00 0.00 0.00 0.00 0.00 0.00 0.00 0.00 0.00 0.00 0.00 0.00 0.00 0.00 0.00 0.00 0.00 0.00 0.00 0.00 0.00 0.00 0.00 0.00 0.00 0.00 0.00 0.00 0.00 0.00 0.00 0.00 0.00 0.00 0.00 0.00 0.00 0.00
0.00 0.00 0.00 0.00 0.00 0.00 0.00 0.00 0.00 0.00 0.00 0.00 0.00 0.00 0.00 0.00 0.00 0.00 0.00 0.00 0.00 0.00 0.00 0.00 0.00 0.00 0.00 0.00 0.00 0.00 0.00 0.00 0.00 0.00 0.00 0.00 0.00 0.00 0.00 0.00 0.00 0.00 0.00 0.00 0.00
MSLP
1020.59 1020.76 1020.32 1020.35 1020.30 1019.99 1019.92 1019.67 1019.49 1019.48 1019.20 1018.83 1018.54 1018.37 1018.05 1017.67 1017.49 1017.56 1018.23 1018.43 1017.89 1017.28 1017.11 1016.55 1015.88 1015.78 1015.90 1016.53 1016.89 1017.36 1018.89 1019.98 1019.82 1019.91 1019.66 1019.49 1019.55 1019.49 1019.48 1019.63 1019.83 1019.88 1020.10 1020.18 1020.20
1020.68 1020.63 1020.47 1020.17 1020.25 1020.14 1019.87 1019.74 1019.68 1019.42 1019.30 1019.07 1018.86 1018.77 1018.53 1018.00 1017.67 1018.25 1018.32 1017.81 1017.48 1017.32 1017.13 1016.70 1016.40 1016.18 1016.70 1017.33 1017.54 1018.25 1019.64 1019.83 1019.94 1019.92 1019.97 1019.74 1019.77 1019.82 1019.87 1019.99 1020.08 1020.19 1020.37 1020.34 1020.38
1020.91 1020.54 1020.41 1020.11 1020.07 1020.23 1019.86 1019.48 1019.59 1019.37 1019.23 1018.91 1018.66 1018.42 1018.41 1018.42 1018.13 1018.21 1017.95 1017.59 1017.14 1017.15 1017.29 1016.95 1016.64 1016.63 1017.33 1017.80 1018.35 1018.96 1019.68 1020.05 1020.16 1020.12 1020.10 1020.07 1020.09 1020.19 1020.13 1020.16 1020.01 1020.21 1020.35 1020.44 1020.49
1020.88 1020.64 1020.37 1020.15 1019.87 1019.88 1019.91 1019.48 1019.46 1019.44 1019.16 1018.89 1018.81 1018.54 1018.09 1018.22 1018.90 1018.30 1017.79 1017.39 1017.00 1016.79 1017.18 1016.92 1016.62 1016.95 1017.83 1018.41 1018.81 1019.47 1019.95 1019.99 1020.34 1020.22 1020.16 1020.27 1020.45 1020.58 1020.40 1019.91 1019.76 1019.98 1020.25 1020.42 1020.38
1020.61 1020.63 1020.53 1020.21 1019.90 1019.79 1019.67 1019.50 1019.18 1019.20 1019.15 1018.90 1018.73 1018.68 1018.52 1018.42 1018.71 1018.21 1017.85 1017.28 1016.96 1016.86 1017.19 1017.01 1017.06 1017.37 1018.39 1018.77 1019.21 1019.71 1020.18 1020.15 1020.35 1020.33 1020.07 1020.23 1020.55 1020.98 1020.27 1019.83 1019.99 1020.10 1020.24 1020.29 1020.28
1020.57 1020.46 1020.35 1020.22 1019.92 1019.69 1019.52 1019.23 1019.00 1018.94 1019.07 1018.62 1018.60 1018.79 1018.55 1018.45 1018.58 1018.52 1017.99 1017.52 1017.40 1017.19 1017.50 1017.34 1017.50 1017.57 1018.40 1019.17 1019.46 1019.92 1020.18 1020.25 1020.42 1020.38 1020.26 1020.34 1020.55 1021.03 1019.80 1019.58 1020.14 1020.30 1020.21 1020.20 1020.24
1020.34 1020.50 1020.31 1020.06 1019.87 1019.62 1019.41 1019.25 1019.10 1018.80 1018.83 1018.59 1018.58 1018.60 1018.57 1018.68 1018.38 1018.54 1018.27 1017.82 1017.71 1017.70 1017.82 1017.67 1017.67 1017.97 1018.73 1019.29 1019.63 1020.12 1020.55 1020.53 1020.45 1020.36 1020.42 1020.53 1020.36 1020.53 1019.71 1020.04 1020.32 1020.38 1020.19 1020.06 1019.91
1020.20 1020.22 1020.15 1020.00 1019.83 1019.46 1019.10 1019.08 1018.83 1018.65 1018.73 1018.50 1018.51 1018.43 1018.69 1018.44 1018.41 1018.39 1018.28 1017.99 1017.66 1017.70 1018.01 1017.80 1017.72 1018.37 1019.38 1019.55 1019.96 1020.45 1020.78 1021.05 1020.67 1020.51 1020.50 1020.72 1020.41 1019.76 1019.56 1020.15 1020.41 1020.52 1020.34 1019.98 1019.59
1020.08 1019.96 1019.92 1019.81 1019.55 1019.38 1018.74 1018.77 1018.72 1018.54 1018.48 1018.49 1018.55 1018.65 1018.80 1018.45 1018.62 1018.70 1018.63 1018.49 1018.20 1018.18 1018.01 1017.84 1018.10 1019.42 1020.02 1020.59 1020.95 1021.15 1021.18 1021.15 1020.91 1020.75 1020.92 1020.94 1020.38 1019.56 1019.60 1020.14 1020.48 1020.42 1020.26 1019.83 1019.50
1019.88 1019.83 1019.62 1019.58 1019.53 1019.13 1018.61 1018.59 1018.40 1018.62 1018.16 1018.43 1018.37 1019.21 1019.05 1018.88 1018.72 1018.77 1018.77 1018.48 1018.40 1018.63 1018.70 1018.55 1019.33 1020.48 1021.26 1021.42 1021.56 1021.56 1021.52 1021.37 1021.33 1021.37 1021.43 1021.32 1020.25 1019.70 1019.44 1019.80 1019.91 1020.02 1020.01 1019.86 1019.61
1019.81 1019.70 1019.46 1019.27 1019.26 1018.93 1018.94 1018.35 1019.24 1019.23 1018.96 1019.31 1019.10 1019.30 1019.24 1019.10 1018.86 1018.75 1018.92 1018.66 1018.75 1019.37 1019.37 1019.79 1020.49 1021.50 1021.98 1021.80 1021.48 1021.53 1021.95 1022.06 1021.65 1021.81 1021.80 1021.32 1020.51 1019.62 1019.06 1019.23 1019.37 1019.61 1019.70 1019.50 1019.33
1019.61 1019.44 1019.61 1018.88 1019.12 1018.70 1019.31 1018.70 1018.83 1018.62 1019.30 1019.30 1019.42 1019.26 1019.30 1019.55 1019.37 1019.20 1018.79 1018.99 1019.55 1020.15 1020.43 1020.82 1021.58 1022.14 1021.95 1022.02 1021.85 1022.01 1022.38 1022.55 1022.24 1022.14 1022.59 1021.25 1020.17 1019.00 1018.62 1018.43 1018.51 1018.89 1019.09 1019.09 1019.14
1019.18 1019.36 1019.21 1019.15 1018.83 1018.64 1018.87 1018.68 1018.59 1018.47 1018.95 1019.34 1019.26 1019.29 1019.38 1019.79 1019.69 1019.54 1019.40 1019.40 1020.21 1021.01 1021.68 1022.06 1022.88 1022.71 1022.45 1022.46 1022.41 1022.84 1023.12 1023.39 1023.69 1023.02 1022.50 1022.06 1020.22 1018.74 1018.15 1017.99 1018.00 1018.17 1018.34 1018.55 1018.80
1018.94 1019.01 1019.06 1019.21 1018.99 1018.51 1018.62 1018.38 1018.61 1018.63 1019.53 1019.35 1019.22 1019.11 1019.40 1019.44 1020.03 1019.71 1019.66 1020.05 1020.54 1021.63 1022.43 1023.10 1023.19 1023.03 1023.08 1023.29 1023.30 1023.42 1023.69 1023.96 1024.07 1024.24 1023.62 1022.67 1021.16 1019.05 1018.35 1018.03 1018.01 1017.98 1018.19 1018.48 1018.69
1018.58 1018.77 1018.95 1019.10 1018.78 1018.65 1018.76 1018.34 1018.49 1018.99 1019.72 1019.19 1019.17 1019.35 1019.30 1019.53 1019.67 1019.98 1019.91 1019.95 1021.01 1021.92 1022.90 1023.65 1023.65 1023.47 1023.37 1023.83 1023.98 1024.15 1024.12 1024.28 1024.54 1024.73 1024.39 1023.25 1022.71 1019.15 1018.43 1018.07 1017.85 1017.67 1017.95 1018.31 1018.53
1018.18 1018.59 1018.76 1018.92 1019.03 1018.36 1018.59 1018.34 1018.84 1020.05 1019.59 1019.33 1019.11 1019.37 1019.64 1019.47 1019.50 1020.05 1020.24 1020.28 1021.30 1022.29 1023.38 1024.03 1024.11 1024.22 1024.13 1024.02 1024.11 1024.56 1024.67 1024.77 1024.99 1025.34 1024.82 1023.56 1023.04 1019.70 1018.54 1017.83 1017.68 1017.54 1017.69 1018.09 1018.30
1017.71 1018.20 1018.69 1018.45 1018.37 1018.24 1018.48 1019.03 1020.40 1019.95 1019.39 1019.32 1019.04 1019.13 1019.29 1019.61 1019.71 1020.05 1020.64 1020.87 1021.71 1023.05 1024.34 1024.64 1024.62 1024.57 1024.62 1024.66 1024.55 1024.72 1025.16 1025.47 1025.99 1025.91 1025.12 1023.80 1022.97 1019.27 1017.98 1017.48 1017.38 1017.50 1017.77 1017.91 1018.04
1017.22 1017.82 1018.20 1018.27 1017.92 1018.32 1018.75 1019.98 1020.41 1018.86 1018.74 1018.31 1018.50 1019.05 1019.06 1019.18 1019.69 1020.07 1020.71 1021.33 1021.71 1022.61 1024.59 1025.05 1025.19 1025.25 1025.24 1025.28 1025.06 1025.07 1025.47 1026.22 1026.98 1027.11 1025.84 1023.91 1021.79 1018.69 1017.60 1017.11 1017.11 1017.20 1017.40 1017.68 1018.01
1016.94 1017.91 1018.12 1017.90 1018.00 1018.53 1018.88 1020.38 1018.64 1017.84 1017.35 1017.72 1018.40 1018.96 1019.10 1019.00 1019.22 1019.93 1020.39 1021.09 1021.34 1022.00 1023.14 1024.55 1025.42 1025.62 1025.65 1025.68 1025.80 1025.48 1025.81 1026.23 1026.85 1027.89 1026.43 1023.25 1020.56 1018.30 1017.60 1017.23 1017.08 1017.20 1017.36 1017.58 1017.88
1016.37 1017.65 1017.65 1017.35 1017.92 1018.63 1019.30 1018.36 1017.67 1016.62 1016.46 1016.72 1017.03 1017.42 1018.28 1018.66 1019.24 1019.67 1020.20 1020.28 1021.15 1021.75 1022.34 1023.72 1025.16 1026.07 1025.95 1025.94 1025.97 1025.73 1025.95 1026.40 1026.88 1027.44 1026.54 1023.28 1021.31 1018.88 1017.78 1017.41 1017.41 1017.57 1017.67 1017.75 1017.92
1015.67 1017.38 1017.31 1017.19 1017.95 1018.90 1018.94 1018.12 1016.93 1016.00 1015.52 1016.08 1016.09 1016.79 1017.18 1017.75 1018.50 1018.99 1019.63 1020.26 1020.68 1021.82 1022.31 1023.36 1024.26 1026.53 1026.40 1026.15 1026.01 1026.33 1026.05 1026.51 1026.91 1027.01 1026.81 1024.54 1020.64 1017.82 1017.45 1017.22 1017.40 1017.51 1017.66 1017.86 1018.24
1014.79 1016.57 1017.19 1017.22 1018.54 1018.38 1018.03 1017.32 1016.01 1015.67 1015.48 1015.25 1015.44 1015.63 1016.29 1017.12 1017.89 1018.64 1019.20 1020.10 1020.17 1020.99 1022.15 1022.67 1023.91 1026.00 1026.21 1026.10 1026.06 1026.09 1025.93 1025.99 1026.91 1027.37 1027.04 1025.32 1020.35 1017.29 1017.24 1017.17 1017.39 1017.49 1017.76 1017.91 1018.38
1014.15 1016.06 1017.24 1017.32 1017.65 1018.14 1017.69 1016.79 1015.83 1015.55 1015.08 1015.02 1015.19 1014.99 1015.46 1016.33 1017.67 1018.54 1019.41 1020.25 1020.53 1020.85 1021.31 1022.11 1023.79 1025.26 1026.13 1026.64 1026.26 1026.17 1025.88 1025.83 1026.41 1026.81 1026.47 1025.08 1020.13 1017.75 1017.58 1017.59 1017.66 1017.96 1018.00 1018.32 1018.69
1013.23 1015.69 1017.10 1017.68 1017.13 1016.61 1016.77 1016.18 1015.71 1014.96 1014.59 1014.38 1014.54 1014.78 1015.50 1016.38 1017.25 1018.65 1019.95 1020.67 1020.91 1021.01 1021.30 1021.71 1023.40 1024.39 1024.99 1024.84 1024.86 1025.85 1025.70 1025.73 1025.93 1026.41 1025.50 1023.22 1019.75 1018.10 1017.69 1017.89 1017.73 1018.03 1018.06 1018.41 1018.76
1011.81 1013.19 1013.86 1015.86 1016.20 1015.92 1015.63 1015.18 1015.26 1014.74 1014.49 1014.34 1014.62 1014.44 1014.82 1016.66 1017.68 1018.64 1019.92 1020.96 1021.34 1021.47 1021.73 1022.12 1023.44 1024.34 1024.63 1024.33 1024.42 1024.49 1024.68 1025.03 1025.18 1024.35 1023.95 1020.82 1020.22 1017.43 1016.96 1017.49 1017.32 1017.38 1017.70 1018.25 1018.63
1010.86 1011.69 1013.47 1013.47 1013.66 1015.01 1014.64 1013.74 1013.53 1013.67 1013.73 1014.03 1014.06 1014.05 1014.49 1015.20 1015.52 1017.37 1018.65 1020.05 1020.14 1021.77 1022.08 1022.30 1023.65 1024.33 1024.82 1024.69 1024.51 1024.07 1023.55 1023.81 1023.56 1023.45 1022.46 1020.89 1019.06 1016.15 1015.96 1016.32 1016.91 1017.01 1017.36 1017.80 1017.87
1010.07 1010.49 1010.79 1012.13 1012.70 1013.73 1012.28 1012.33 1012.54 1012.91 1013.07 1012.77 1013.32 1014.00 1014.85 1014.67 1015.36 1016.18 1017.03 1017.50 1018.34 1019.79 1021.59 1022.40 1023.13 1024.18 1024.55 1024.20 1023.81 1022.90 1020.71 1021.23 1021.24 1020.77 1020.38 1019.89 1016.15 1015.58 1015.45 1015.69 1015.83 1015.95 1016.24 1016.67 1016.91
Thickness
5666 5664 5669 5669 5668 5674 5675 5678 5681 5681 5683 5688 5690 5692 5695 5699 5699 5699 5690 5690 5695 5699 5700 5704 5708 5706 5704 5695 5692 5688 5656 5648 5657 5654 5654 5658 5654 5653 5652 5645 5640 5636 5628 5624 5619
5662 5662 5663 5667 5667 5668 5672 5674 5675 5678 5679 5682 5684 5684 5686 5692 5696 5688 5690 5693 5696 5696 5698 5698 5698 5698 5687 5683 5681 5669 5649 5655 5656 5653 5650 5652 5651 5647 5645 5639 5634 5630 5623 5618 5612
5655 5660 5661 5665 5666 5664 5669 5674 5673 5676 5678 5682 5685 5687 5686 5685 5688 5685 5689 5692 5696 5695 5693 5694 5695 5693 5680 5677 5672 5665 5651 5652 5651 5650 5649 5646 5645 5640 5639 5631 5630 5623 5618 5612 5605
5651 5655 5659 5662 5666 5666 5666 5671 5672 5672 5675 5679 5679 5682 5687 5685 5679 5682 5688 5691 5694 5696 5691 5690 5692 5684 5670 5666 5666 5654 5653 5653 5647 5647 5646 5642 5637 5632 5634 5633 5632 5623 5615 5607 5599
5649 5650 5652 5658 5662 5663 5665 5667 5671 5671 5672 5675 5678 5678 5680 5678 5675 5681 5684 5690 5691 5692 5686 5685 5682 5677 5663 5663 5660 5651 5649 5649 5645 5643 5644 5642 5635 5628 5630 5632 5626 5619 5612 5605 5595
5645 5648 5650 5652 5657 5660 5663 5667 5670 5671 5669 5674 5675 5673 5676 5675 5675 5675 5681 5684 5683 5684 5678 5679 5676 5675 5664 5657 5654 5651 5647 5644 5641 5641 5641 5637 5633 5627 5634 5631 5620 5615 5609 5600 5590
5642 5642 5646 5650 5653 5656 5659 5662 5664 5668 5668 5670 5671 5672 5670 5669 5673 5671 5673 5677 5677 5676 5672 5674 5673 5669 5661 5654 5654 5645 5640 5639 5638 5639 5636 5632 5635 5625 5632 5626 5617 5611 5605 5598 5590
5637 5639 5642 5646 5649 5653 5658 5660 5664 5666 5665 5668 5668 5669 5663 5669 5669 5669 5669 5671 5675 5674 5669 5671 5671 5662 5653 5653 5648 5642 5633 5625 5633 5635 5634 5630 5625 5635 5634 5619 5614 5605 5596 5592 5587
5631 5635 5638 5641 5646 5649 5656 5658 5660 5662 5664 5664 5665 5663 5660 5665 5662 5662 5663 5663 5665 5666 5667 5668 5665 5650 5646 5635 5628 5626 5625 5628 5629 5630 5630 5628 5626 5632 5630 5617 5606 5599 5594 5591 5584
5625 5629 5634 5636 5639 5645 5652 5654 5657 5656 5663 5660 5662 5654 5656 5656 5658 5658 5658 5660 5660 5656 5654 5656 5643 5632 5620 5622 5621 5625 5624 5624 5622 5624 5621 5619 5621 5626 5623 5615 5609 5599 5590 5583 5579
5616 5621 5628 5632 5635 5640 5643 5649 5643 5646 5648 5645 5650 5648 5649 5651 5654 5654 5653 5654 5654 5644 5642 5640 5630 5624 5621 5623 5627 5626 5620 5615 5619 5618 5612 5608 5610 5621 5621 5621 5607 5600 5590 5587 5582
5609 5615 5616 5628 5628 5636 5633 5642 5644 5650 5638 5643 5643 5644 5645 5643 5645 5647 5652 5651 5643 5633 5634 5628 5622 5618 5622 5622 5623 5620 5616 5611 5609 5614 5606 5611 5620 5623 5621 5623 5616 5605 5596 5587 5581
5603 5606 5612 5616 5623 5630 5630 5635 5639 5643 5637 5637 5639 5640 5639 5638 5637 5641 5643 5643 5632 5622 5612 5619 5609 5611 5615 5610 5615 5603 5608 5601 5596 5593 5602 5598 5616 5628 5631 5626 5620 5612 5605 5595 5583
5594 5598 5603 5606 5615 5622 5625 5629 5631 5634 5601 5632 5632 5637 5635 5635 5631 5635 5635 5633 5626 5616 5607 5601 5604 5606 5606 5602 5600 5607 5595 5592 5590 5581 5602 5598 5610 5625 5624 5621 5616 5607 5597 5587 5580
5586 5588 5592 5598 5606 5612 5616 5621 5623 5622 5594 5626 5625 5629 5630 5630 5629 5627 5628 5629 5620 5615 5609 5606 5600 5601 5604 5595 5591 5596 5589 5588 5586 5580 5578 5596 5574 5618 5618 5622 5613 5608 5599 5587 5578
5576 5579 5583 5588 5592 5603 5605 5612 5612 5583 5585 5601 5618 5619 5621 5624 5625 5621 5621 5621 5612 5607 5592 5588 5588 5585 5587 5588 5588 5583 5584 5581 5573 5564 5541 5592 5578 5609 5613 5620 5617 5612 5603 5591 5582
5567 5568 5570 5579 5586 5591 5595 5595 5567 5565 5596 5601 5608 5615 5619 5615 5617 5616 5612 5610 5599 5588 5571 5577 5583 5580 5579 5583 5583 5581 5570 5543 5565 5545 5570 5575 5563 5603 5618 5618 5615 5609 5601 5594 5585
5557 5559 5562 5566 5575 5578 5579 5568 5541 5561 5580 5610 5612 5609 5612 5614 5612 5610 5605 5600 5602 5587 5537 5566 5583 5574 5568 5571 5578 5576 5570 5539 5569 5567 5566 5566 5586 5616 5615 5619 5616 5611 5607 5601 5590
5547 5545 5550 5555 5559 5562 5564 5518 5562 5580 5602 5605 5607 5598 5605 5610 5609 5606 5600 5585 5592 5585 5593 5558 5572 5562 5561 5560 5562 5571 5551 5559 5518 5480 5530 5578 5597 5613 5615 5614 5612 5609 5606 5602 5593
5540 5535 5539 5543 5543 5544 5532 5563 5563 5598 5601 5605 5606 5604 5592 5598 5601 5598 5592 5603 5595 5587 5581 5573 5567 5546 5555 5557 5557 5563 5559 5550 5518 5565 5563 5569 5580 5599 5616 5613 5607 5605 5599 5599 5592
5530 5523 5528 5531 5528 5525 5531 5540 5571 5590 5600 5597 5592 5596 5604 5600 5599 5596 5597 5597 5590 5575 5576 5552 5566 5548 5544 5540 5549 5539 5532 5547 5541 5533 5533 5529 5591 5600 5615 5616 5609 5603 5601 5593 5589
5523 5509 5515 5516 5501 5492 5513 5543 5575 5581 5586 5594 5597 5602 5597 5597 5594 5596 5594 5591 5582 5576 5579 5569 5556 5529 5544 5536 5539 5542 5558 5551 5531 5533 5496 5518 5580 5619 5610 5615 5612 5606 5600 5597 5591
5516 5504 5498 5501 5513 5503 5506 5547 5563 5565 5574 5580 5587 5597 5602 5596 5586 5588 5580 5571 5570 5573 5572 5566 5543 5525 5547 5533 5529 5535 5541 5547 5532 5516 5504 5536 5583 5605 5598 5600 5601 5600 5597 5593 5589
5506 5489 5482 5484 5491 5514 5510 5529 5548 5560 5569 5575 5582 5587 5586 5573 5579 5565 5559 5562 5563 5568 5570 5567 5522 5560 5567 5572 5545 5524 5522 5537 5533 5491 5526 5543 5588 5601 5587 5583 5596 5590 5584 5583 5582
5498 5490 5498 5491 5491 5505 5523 5531 5538 5537 5555 5563 5569 5577 5582 5555 5544 5551 5544 5545 5550 5555 5554 5555 5543 5508 5506 5545 5551 5549 5529 5522 5526 5549 5554 5598 5563 5604 5596 5591 5596 5592 5596 5579 5578
5487 5489 5488 5494 5517 5507 5516 5522 5550 5544 5545 5552 5563 5572 5574 5573 5585 5558 5550 5542 5556 5535 5540 5541 5515 5503 5518 5496 5508 5523 5536 5530 5537 5518 5534 5554 5574 5609 5615 5604 5584 5589 5585 5583 5584
5481 5490 5503 5496 5502 5501 5531 5529 5540 5546 5544 5560 5562 5561 5560 5572 5569 5561 5560 5562 5559 5545 5530 5529 5513 5510 5526 5482 5491 5540 5554 5548 5542 5544 5560 5554 5610 5608 5607 5609 5605 5607 5600 5592 5592